Location: Qazi Observatory
(41.6337°N, 88.1517°W)
Time: 09:55:25
(UTC-05:00)

Amateur Radio Satellites - All Passes

Search period start: 06 May 2016 09:25
Search period end: 07 May 2016 09:25
Location: Qazi Observatory, 41.6337°N, 88.1517°W

Satellite Date Start Highest point End Downlink Frequencies (MHz)
Time Altitude Azimuth
ANTELSAT 06 May 09:32:29 09:36:11 24° 67° (ENE) 09:39:49 437.575/2403.000
DELFI C3 06 May 09:44:52 09:47:28 17° 93° (E) 09:50:03 145.870
GONETS M04 06 May 09:47:02 09:52:37 18° 60° (ENE) 09:58:09
PHONESAT 2.4 06 May 09:47:26 09:50:32 56° 168° (SSE) 09:53:37 2401.200-2431.200
CUTE 1.7 + AOD 2 06 May 09:54:37 09:58:17 29° 290° (WNW) 10:01:56 437.475
Oscar 11 06 May 09:55:31 09:59:42 47° 99° (E) 10:03:51 145.826/435.025
ISS 06 May 10:07:26 10:09:27 15° 7° (N) 10:11:27 145.825
COMPASS 1 06 May 10:10:44 10:14:32 35° 289° (WNW) 10:18:21 437.405
FUNcube-1 06 May 10:12:50 10:16:58 60° 100° (E) 10:21:02 145.935
DUCHIFAT 1 06 May 10:13:54 10:15:17 11° 62° (ENE) 10:16:40 145.980
SEEDS 06 May 10:14:59 10:18:22 24° 292° (WNW) 10:21:45 437.485
QB50P2 06 May 10:18:38 10:21:06 15° 64° (ENE) 10:23:34 145.880/145.840
AIST 1 06 May 10:18:50 10:21:51 18° 71° (ENE) 10:24:51
POLYITAN 1 06 May 10:20:47 10:23:18 15° 64° (ENE) 10:25:50 437.675
POPSAT HIP 1 06 May 10:22:17 10:24:49 16° 64° (ENE) 10:27:21 437.405
QB50P1 06 May 10:24:53 10:27:37 17° 65° (ENE) 10:30:21 145.935-145.965
UNISAT 6 06 May 10:25:50 10:30:28 86° 79° (E) 10:35:03 437.425
CINEMA 3 06 May 10:32:35 10:34:57 14° 298° (WNW) 10:37:16 145.822/145.860
UWE-3 06 May 10:35:44 10:39:46 45° 288° (WNW) 10:43:44 435.000/436.395/437.385
AAUSAT CUBESAT 2 06 May 10:38:06 10:41:22 23° 292° (WNW) 10:44:38 437.432
BUGSAT 1 06 May 10:39:45 10:40:39 11° 61° (ENE) 10:41:33 437.445
TIGRISAT 06 May 10:42:02 10:46:38 68° 259° (WSW) 10:51:10 435.000
HO-68 06 May 10:49:09 10:54:48 26° 302° (WNW) 11:00:28 435.675
CUBEBUG 2 06 May 10:52:14 10:55:33 22° 293° (WNW) 10:58:48 437.445
NANOSAT C BR1 06 May 10:56:08 10:59:58 33° 70° (ENE) 11:03:49 145.865
ZACube-1 06 May 10:57:31 11:01:25 38° 289° (WNW) 11:05:15 437.345
Cosmos 2499 06 May 10:59:05 11:05:34 27° 69° (ENE) 11:12:24 435.465 / 435.565
ESTCUBE 1 06 May 11:01:54 11:02:56 11° 89° (E) 11:03:57 437.505/2401.250
ANTELSAT 06 May 11:08:30 11:12:43 34° 263° (W) 11:16:52 437.575/2403.000
DELFI C3 06 May 11:18:47 11:22:28 37° 288° (WNW) 11:26:10 145.870
PHONESAT 2.4 06 May 11:24:09 11:27:16 69° 186° (S) 11:30:25 2401.200-2431.200
HUMSAT D 06 May 11:26:04 11:30:09 75° 285° (WNW) 11:34:13 437.325/437.525
VELOX 1 06 May 11:29:27 11:32:04 15° 92° (E) 11:34:40 145.980
Oscar 11 06 May 11:32:47 11:35:27 16° 295° (WNW) 11:38:06 145.826/435.025
JAS-2 06 May 11:38:42 11:43:15 21° 57° (ENE) 11:48:10 435.910
GONETS M04 06 May 11:42:04 11:50:52 85° 81° (E) 11:59:35
50 SAT 06 May 11:42:41 11:45:33 21° 95° (E) 11:48:26 437.505
ISS 06 May 11:43:33 11:46:36 36° 27° (NNE) 11:49:39 145.825
DUCHIFAT 1 06 May 11:46:08 11:50:24 71° 259° (W) 11:54:40 145.980
AO-85 06 May 11:49:35 11:54:56 60° 118° (ESE) 12:00:16 145.980
FUNcube-1 06 May 11:51:02 11:52:42 12° 297° (WNW) 11:54:20 145.935
QB50P2 06 May 11:52:19 11:56:29 51° 260° (W) 12:00:41 145.880/145.840
POLYITAN 1 06 May 11:54:31 11:58:42 50° 260° (W) 12:02:53 437.675
AIST 1 06 May 11:55:30 11:59:39 40° 268° (W) 12:03:45
POPSAT HIP 1 06 May 11:56:02 12:00:11 50° 260° (W) 12:04:23 437.405
QB50P1 06 May 11:58:55 12:03:02 45° 261° (W) 12:07:10 145.935-145.965
AISAT 06 May 12:00:59 12:05:05 34° 97° (E) 12:09:08 437.250
BUGSAT 1 06 May 12:11:09 12:15:24 77° 259° (W) 12:19:40 437.445
CUBEBUG 1 06 May 12:26:14 12:30:40 63° 101° (ESE) 12:35:02 437.445
Oscar 19 06 May 12:31:54 12:36:12 27° 65° (ENE) 12:40:31 437.125/150
NANOSAT C BR1 06 May 12:32:30 12:35:46 21° 266° (W) 12:39:02 145.865
ESTCUBE 1 06 May 12:35:41 12:40:14 73° 284° (WNW) 12:44:45 437.505/2401.250
UKube-1 06 May 12:46:09 12:50:30 74° 102° (ESE) 12:54:50 .
DX 1 06 May 12:47:13 12:51:37 88° 291° (WNW) 12:56:00 434.975-435.025
Cosmos 2499 06 May 12:51:24 12:59:08 64° 267° (W) 13:07:28 435.465 / 435.565
Gurwin Techsat 1B 06 May 12:59:17 13:03:10 21° 63° (ENE) 13:07:04 435.225
PHONESAT 2.4 06 May 13:01:06 13:03:54 29° 202° (SSW) 13:06:42 2401.200-2431.200
VELOX 1 06 May 13:04:29 13:08:49 50° 288° (WNW) 13:13:08 145.980
O/OREOS (USA 219) 06 May 13:05:17 13:07:23 13° 98° (E) 13:09:28 437.305
SPROUT 06 May 13:08:29 13:12:47 71° 101° (E) 13:17:02 437.525
50 SAT 06 May 13:16:19 13:19:17 24° 291° (WNW) 13:22:17 437.505
ISS 06 May 13:20:07 13:23:00 29° 224° (SW) 13:25:52 145.825
SO-50 06 May 13:20:49 13:22:47 12° 33° (NNE) 13:24:43 436.795
JAS-2 06 May 13:21:17 13:27:23 75° 257° (WSW) 13:34:24 435.910
TISAT 1 06 May 13:27:41 13:31:29 32° 97° (E) 13:35:14 437.305
AO-85 06 May 13:31:20 13:35:49 25° 316° (NW) 13:40:16 145.980
AISAT 06 May 13:37:51 13:41:21 23° 294° (WNW) 13:44:51 437.250
GONETS M04 06 May 13:40:50 13:46:30 20° 282° (WNW) 13:52:09
SWISSCUBE 06 May 13:51:42 13:53:42 12° 90° (E) 13:55:42 437.505
ITAMSAT 1 06 May 13:59:11 14:03:38 30° 66° (ENE) 14:08:06 435.822/435.867
AO-7 06 May 14:02:35 14:08:59 26° 54° (NE) 14:15:23 29.400- 29.500
CUBEBUG 1 06 May 14:04:14 14:06:25 14° 298° (WNW) 14:08:35 437.445
Oscar 19 06 May 14:10:31 14:15:18 38° 262° (W) 14:20:10 437.125/150
BEESAT 06 May 14:22:52 14:26:43 24° 95° (E) 14:30:33 436.000
UKube-1 06 May 14:24:34 14:25:57 11° 299° (WNW) 14:27:18 .
PCSat 06 May 14:25:39 14:30:33 36° 111° (ESE) 14:35:29 145.827
Gurwin Techsat 1B 06 May 14:37:32 14:42:43 53° 260° (W) 14:47:55 435.225
O/OREOS (USA 219) 06 May 14:41:39 14:46:12 62° 294° (WNW) 14:50:46 437.305
SPROUT 06 May 14:46:44 14:48:09 11° 298° (WNW) 14:49:33 437.525
CUSAT 1 06 May 14:48:07 14:51:48 59° 95° (E) 14:56:43 437.405
Cosmos 2499 06 May 14:50:15 14:50:46 10° 285° (WNW) 14:51:16 435.465 / 435.565
SO-50 06 May 14:59:32 15:04:15 64° 55° (NE) 15:08:47 436.795
TISAT 1 06 May 15:03:42 15:06:57 22° 293° (WNW) 15:10:12 437.305
JAS-2 06 May 15:12:35 15:13:52 11° 279° (W) 15:15:10 435.910
ITUPSAT 1 06 May 15:20:00 15:24:48 89° 104° (ESE) 15:29:36 437.325
KKS-1 06 May 15:22:31 15:24:06 12° 90° (E) 15:25:42 437.445
SWISSCUBE 06 May 15:27:12 15:31:57 69° 287° (WNW) 15:36:42 437.505
ITAMSAT 1 06 May 15:38:21 15:43:00 34° 263° (W) 15:47:41 435.822/435.867
HORYU 2 06 May 15:46:43 15:50:07 22° 66° (ENE) 15:53:30 437.375
AO-7 06 May 15:52:38 16:00:55 78° 253° (WSW) 16:09:16 29.400- 29.500
MOZHAYETS 4 06 May 15:54:26 15:57:36 18° 92° (E) 16:00:47
BEESAT 06 May 16:00:14 16:04:34 36° 291° (WNW) 16:08:55 436.000
PCSat 06 May 16:09:01 16:13:56 34° 309° (NW) 16:18:53 145.827
DANDE 06 May 16:09:32 16:12:29 37° 288° (WNW) 16:16:15 436.750
NOAA 15 06 May 16:28:48 16:31:14 13° 58° (ENE) 16:33:41 137.62
CUSAT 1 06 May 16:33:01 16:34:52 12° 302° (WNW) 16:36:56 437.405
SO-50 06 May 16:41:34 16:44:09 15° 252° (WSW) 16:46:40 436.795
Cubesat XI-IV 06 May 16:46:13 16:48:29 13° 58° (ENE) 16:50:45 437.490
NOAA 18 06 May 16:47:17 16:51:00 19° 60° (ENE) 16:54:42 137.9125
Cosmos 2491 06 May 16:51:46 16:59:52 38° 71° (ENE) 17:07:51 435.465 / 435.565
KKS-1 06 May 16:56:40 17:01:07 65° 286° (WNW) 17:05:31 437.445
ITUPSAT 1 06 May 17:00:34 17:01:55 11° 301° (WNW) 17:03:15 437.325
STARS 06 May 17:01:47 17:06:12 74° 103° (ESE) 17:10:34 437.465
YUBILEINY 06 May 17:05:30 17:10:41 18° 77° (ENE) 17:15:50 435.215
HORYU 2 06 May 17:22:18 17:26:27 37° 262° (W) 17:30:35 437.375
M-CUBED/EXP-1 PRIME 06 May 17:26:29 17:28:20 12° 56° (NE) 17:30:10 437.505
MOZHAYETS 4 06 May 17:30:38 17:34:59 43° 288° (WNW) 17:39:19
CUTE-I 06 May 17:37:17 17:42:04 36° 68° (ENE) 17:46:53 437.470
AUBIESAT-1 06 May 17:40:50 17:43:09 14° 58° (ENE) 17:45:25 437.475
BRITE-PL 06 May 17:41:51 17:46:22 35° 68° (ENE) 17:51:13 437.365/2234.400
CUBESAT XI-V 06 May 17:50:15 17:54:33 34° 97° (E) 17:58:50 437.345
AO-7 06 May 17:50:47 17:54:56 14° 272° (W) 17:59:06 29.400- 29.500
BEESAT 3 06 May 17:53:34 17:57:30 79° 303° (WNW) 18:01:28 437.485
NOAA 15 06 May 18:04:58 18:10:15 87° 254° (WSW) 18:15:35 137.62
DOVE 4 06 May 18:07:36 18:11:00 18° 62° (ENE) 18:14:25 437.250
BEESAT 2 06 May 18:09:09 18:13:07 88° 121° (ESE) 18:17:08 435.950
LilacSat-2 06 May 18:18:33 18:22:25 76° 76° (ENE) 18:26:18 437.200
Cubesat XI-IV 06 May 18:22:25 18:27:46 89° 80° (E) 18:33:08 437.490
NOAA 18 06 May 18:25:39 18:31:08 65° 258° (WSW) 18:36:36 137.9125
GOMX 1 06 May 18:31:07 18:36:06 53° 72° (ENE) 18:41:22 467.674
STARS 06 May 18:40:27 18:41:56 12° 299° (WNW) 18:43:27 437.465
AIST 2 06 May 18:40:51 18:42:41 13° 109° (ESE) 18:44:31 435.215
AO-85 06 May 18:43:48 18:44:55 11° 30° (NNE) 18:46:02 145.980
Cosmos 2491 06 May 18:48:32 18:56:50 48° 272° (W) 19:05:03 435.465 / 435.565
YUBILEINY 06 May 18:57:25 19:06:09 89° 100° (E) 19:14:55 435.215
M-CUBED/EXP-1 PRIME 06 May 18:57:31 19:02:15 87° 247° (WSW) 19:06:53 437.505
AUBIESAT-1 06 May 19:12:27 19:17:06 74° 254° (WSW) 19:21:37 437.475
CUTE 1.7 + AOD 2 06 May 19:12:31 19:15:22 18° 66° (ENE) 19:18:14 437.475
STRAND 1 06 May 19:14:51 19:18:50 22° 94° (E) 19:22:47 437.568
CUTE-I 06 May 19:17:32 19:22:08 29° 264° (W) 19:26:45 437.470
BRITE-PL 06 May 19:20:36 19:24:53 28° 267° (W) 19:29:27 437.365/2234.400
COMPASS 1 06 May 19:27:55 19:30:03 14° 64° (ENE) 19:32:12 437.405
CUBESAT XI-V 06 May 19:27:56 19:31:46 25° 293° (WNW) 19:35:36 437.345
HO-68 06 May 19:29:05 19:35:54 49° 66° (ENE) 19:42:43 435.675
SEEDS 06 May 19:31:30 19:34:38 21° 67° (ENE) 19:37:46 437.485
BEESAT 3 06 May 19:34:49 19:35:53 11° 322° (NW) 19:36:57 437.485
DOVE 4 06 May 19:42:57 19:48:05 65° 260° (W) 19:53:24 437.250
Cosmos 2504 06 May 19:43:38 19:50:25 46° 90° (E) 19:57:09 435.465 / 435.565
BEESAT 2 06 May 19:49:51 19:51:34 12° 321° (NW) 19:53:16 435.950
NOAA 15 06 May 19:50:22 19:50:46 10° 272° (W) 19:51:09 137.62
AAUSAT CUBESAT 2 06 May 19:53:18 19:56:23 21° 67° (ENE) 19:59:28 437.432
CINEMA 3 06 May 19:54:36 19:59:31 58° 73° (ENE) 20:04:25 145.822/145.860
UWE-3 06 May 19:58:01 20:00:36 15° 64° (ENE) 20:03:09 435.000/436.395/437.385
Cubesat XI-IV 06 May 20:07:12 20:08:31 11° 272° (W) 20:09:51 437.490
GOMX 1 06 May 20:10:47 20:14:30 20° 270° (W) 20:18:23 467.674
CUBEBUG 2 06 May 20:13:07 20:17:12 30° 69° (ENE) 20:21:12 437.445
CANX-2 06 May 20:14:40 20:18:53 81° 256° (WSW) 20:23:07 2200.000
AIST 2 06 May 20:16:34 20:20:40 61° 305° (NW) 20:24:47 435.215
ZACube-1 06 May 20:18:28 20:21:14 16° 65° (ENE) 20:23:56 437.345
AO-85 06 May 20:21:58 20:26:41 50° 52° (NE) 20:30:57 145.980
RS-15 06 May 20:29:31 20:39:56 46° 109° (ESE) 20:50:51 29.354- 29.394
PRISM 06 May 20:30:46 20:34:09 23° 95° (E) 20:37:32 437.425
DELFI C3 06 May 20:33:07 20:34:00 11° 63° (ENE) 20:34:54 145.870
CUTE 1.7 + AOD 2 06 May 20:46:57 20:50:54 39° 262° (W) 20:54:53 437.475
Oscar 11 06 May 20:50:22 20:54:19 37° 71° (ENE) 20:58:18 145.826/435.025
STRAND 1 06 May 20:53:20 20:58:11 44° 290° (WNW) 21:03:00 437.568
YUBILEINY 06 May 20:58:15 21:04:11 20° 298° (WNW) 21:10:11 435.215
COMPASS 1 06 May 21:01:10 21:05:11 51° 261° (W) 21:09:14 437.405
SEEDS 06 May 21:06:24 21:10:09 32° 263° (W) 21:13:56 437.485
FUNcube-1 06 May 21:08:02 21:12:21 49° 73° (ENE) 21:16:36 145.935
HO-68 06 May 21:17:32 21:23:47 32° 264° (W) 21:30:06 435.675
AAUSAT CUBESAT 2 06 May 21:28:00 21:31:41 32° 263° (W) 21:35:23 437.432
UWE-3 06 May 21:32:03 21:36:36 59° 260° (W) 21:41:04 435.000/436.395/437.385
CINEMA 3 06 May 21:33:48 21:36:58 17° 269° (W) 21:40:08 145.822/145.860
Cosmos 2504 06 May 21:37:42 21:43:57 31° 289° (WNW) 21:50:13 435.465 / 435.565
CUBEBUG 2 06 May 21:49:41 21:53:45 28° 265° (W) 21:57:46 437.445
ZACube-1 06 May 21:52:44 21:57:07 51° 260° (W) 22:01:27 437.345
ESTCUBE 1 06 May 22:02:05 22:03:25 11° 60° (ENE) 22:04:45 437.505/2401.250
AO-85 06 May 22:03:33 22:06:40 18° 252° (WSW) 22:09:35 145.980
DELFI C3 06 May 22:04:26 22:08:20 64° 259° (WSW) 22:12:16 145.870
PRISM 06 May 22:05:50 22:09:27 29° 291° (WNW) 22:13:04 437.425
HUMSAT D 06 May 22:17:04 22:21:16 76° 75° (ENE) 22:25:25 437.325/437.525
UNISAT 6 06 May 22:18:42 22:21:27 16° 92° (E) 22:24:10 437.425
50 SAT 06 May 22:23:20 22:24:31 11° 64° (ENE) 22:25:40 437.505
VELOX 1 06 May 22:27:27 22:29:57 15° 63° (ENE) 22:32:30 145.980
Oscar 11 06 May 22:27:29 22:30:35 19° 267° (W) 22:33:41 145.826/435.025
TIGRISAT 06 May 22:34:06 22:37:32 23° 94° (E) 22:40:53 435.000
RS-15 06 May 22:40:56 22:52:05 57° 313° (NW) 23:03:55 29.354- 29.394
FUNcube-1 06 May 22:46:08 22:48:50 16° 268° (W) 22:51:30 145.935
GONETS M04 06 May 22:50:03 22:55:50 20° 78° (ENE) 23:01:36
AISAT 06 May 22:58:29 23:02:27 32° 69° (ENE) 23:06:26 437.250
ANTELSAT 06 May 22:59:43 23:03:52 46° 99° (E) 23:07:57 437.575/2403.000
O/OREOS (USA 219) 06 May 23:12:42 23:16:33 27° 58° (ENE) 23:20:21 437.305
PCSat 06 May 23:12:59 23:17:53 32° 51° (NE) 23:22:43 145.827
CUBEBUG 1 06 May 23:22:05 23:26:21 52° 73° (ENE) 23:30:41 437.445
DUCHIFAT 1 06 May 23:31:09 23:34:00 18° 93° (E) 23:36:50 145.980
ESTCUBE 1 06 May 23:35:05 23:39:34 79° 257° (WSW) 23:44:05 437.505/2401.250
QB50P2 06 May 23:37:30 23:40:58 24° 95° (E) 23:44:24 145.880/145.840
Cosmos 2499 06 May 23:39:04 23:43:26 18° 80° (E) 23:47:48 435.465 / 435.565
POLYITAN 1 06 May 23:39:43 23:43:12 24° 95° (E) 23:46:38 437.675
CUSAT 1 06 May 23:40:32 23:43:14 12° 58° (ENE) 23:46:01 437.405
UKube-1 06 May 23:40:34 23:44:50 63° 74° (ENE) 23:49:08 .
POPSAT HIP 1 06 May 23:41:03 23:44:33 25° 95° (E) 23:48:00 437.405
DX 1 06 May 23:42:32 23:46:53 82° 76° (ENE) 23:51:18 434.975-435.025
QB50P1 06 May 23:43:44 23:47:21 27° 96° (E) 23:50:55 145.935-145.965
BUGSAT 1 06 May 23:54:17 23:56:42 15° 92° (E) 23:59:05 437.445
50 SAT 06 May 23:54:19 23:57:51 49° 260° (W) 00:01:25 437.505
UNISAT 6 06 May 23:54:19 23:58:23 42° 288° (WNW) 00:02:24 437.425
VELOX 1 07 May 00:01:36 00:05:57 56° 259° (W) 00:10:22 145.980
SPROUT 07 May 00:01:57 00:06:09 54° 73° (ENE) 00:10:23 437.525
TIGRISAT 07 May 00:10:29 00:14:14 30° 291° (WNW) 00:17:58 435.000
NANOSAT C BR1 07 May 00:15:32 00:19:43 59° 101° (E) 00:23:51 145.865
TISAT 1 07 May 00:19:39 00:23:10 25° 68° (ENE) 00:26:40 437.305
AIST 1 07 May 00:24:22 00:28:41 70° 279° (W) 00:33:03
JAS-2 07 May 00:31:12 00:36:45 21° 88° (E) 00:42:11 435.910
AISAT 07 May 00:35:21 00:38:57 24° 265° (W) 00:42:35 437.250
ANTELSAT 07 May 00:37:33 00:40:12 16° 296° (WNW) 00:42:50 437.575/2403.000
GONETS M04 07 May 00:42:35 00:51:27 85° 277° (W) 01:00:21
O/OREOS (USA 219) 07 May 00:51:59 00:55:55 30° 256° (WSW) 00:59:50 437.305
ITUPSAT 1 07 May 00:52:21 00:54:21 13° 60° (ENE) 00:56:21 437.325
PCSat 07 May 00:56:18 01:01:19 39° 249° (WSW) 01:06:17 145.827
SWISSCUBE 07 May 00:58:14 01:01:07 16° 62° (ENE) 01:03:59 437.505
RS-15 07 May 00:58:41 01:08:01 26° 344° (NNW) 01:17:40 29.354- 29.394
CUBEBUG 1 07 May 01:00:34 01:02:58 14° 269° (W) 01:05:22 437.445
DANDE 07 May 01:01:58 01:07:34 24° 69° (ENE) 01:13:52 436.750
DUCHIFAT 1 07 May 01:05:57 01:09:51 38° 289° (WNW) 01:13:45 145.980
QB50P2 07 May 01:13:07 01:16:46 28° 291° (WNW) 01:20:22 145.880/145.840
POLYITAN 1 07 May 01:15:22 01:18:58 28° 291° (WNW) 01:22:33 437.675
POPSAT HIP 1 07 May 01:16:41 01:20:18 28° 291° (WNW) 01:23:53 437.405
CUSAT 1 07 May 01:19:19 01:26:46 57° 76° (ENE) 01:34:42 437.405
QB50P1 07 May 01:19:31 01:23:02 26° 292° (WNW) 01:26:31 145.935-145.965
UKube-1 07 May 01:19:49 01:21:17 11° 270° (W) 01:22:47 .
BUGSAT 1 07 May 01:28:20 01:32:19 44° 288° (WNW) 01:36:14 437.445
Cosmos 2499 07 May 01:28:33 01:35:35 75° 279° (W) 01:42:46 435.465 / 435.565
BEESAT 07 May 01:29:27 01:33:30 29° 67° (ENE) 01:37:35 436.000
SPROUT 07 May 01:40:17 01:42:26 13° 269° (W) 01:44:35 437.525
NANOSAT C BR1 07 May 01:53:01 01:54:56 13° 297° (WNW) 01:56:51 145.865
TISAT 1 07 May 01:55:03 01:58:43 28° 264° (W) 02:02:24 437.305
BEESAT 3 07 May 02:10:45 02:14:40 61° 55° (NE) 02:18:34 437.485
JAS-2 07 May 02:14:36 02:22:31 84° 286° (WNW) 02:30:13 435.910
KKS-1 07 May 02:21:05 02:22:59 13° 61° (ENE) 02:24:53 437.445
Oscar 19 07 May 02:21:20 02:26:34 74° 104° (ESE) 02:31:43 437.125/150
ITUPSAT 1 07 May 02:26:47 02:31:32 78° 257° (WSW) 02:36:19 437.325
BEESAT 2 07 May 02:27:08 02:31:03 54° 54° (NE) 02:34:56 435.950
SWISSCUBE 07 May 02:33:45 02:38:25 59° 259° (W) 02:43:07 437.505
DANDE 07 May 02:43:44 02:50:49 75° 263° (W) 02:59:07 436.750
GONETS M04 07 May 02:43:58 02:49:41 18° 299° (WNW) 02:55:25
Gurwin Techsat 1B 07 May 02:53:19 02:58:36 61° 101° (E) 03:03:51 435.225
MOZHAYETS 4 07 May 02:56:50 02:59:59 19° 65° (ENE) 03:03:08
AIST 2 07 May 03:00:49 03:02:44 13° 39° (NE) 03:04:38 435.215
CUSAT 1 07 May 03:02:00 03:08:36 33° 272° (W) 03:15:29 437.405
BEESAT 07 May 03:07:02 03:11:12 30° 263° (W) 03:15:24 436.000
RS-15 07 May 03:16:16 03:26:06 27° 20° (NNE) 03:36:04 29.354- 29.394
Cosmos 2499 07 May 03:27:32 03:30:08 12° 301° (WNW) 03:32:46 435.465 / 435.565
ITAMSAT 1 07 May 03:50:11 03:55:24 83° 103° (ESE) 04:00:37 435.822/435.867
BEESAT 3 07 May 03:50:30 03:51:51 11° 251° (WSW) 03:53:11 437.485
AO-7 07 May 03:54:20 04:01:49 36° 97° (E) 04:09:16 29.400- 29.500
KKS-1 07 May 03:54:29 03:58:57 71° 257° (WSW) 04:03:28 437.445
STARS 07 May 03:58:14 04:02:38 66° 73° (ENE) 04:07:03 437.465
JAS-2 07 May 04:01:13 04:06:23 20° 304° (NW) 04:11:33 435.910
Oscar 19 07 May 04:02:20 04:05:14 15° 300° (WNW) 04:08:07 437.125/150
BEESAT 2 07 May 04:06:28 04:08:27 13° 251° (WSW) 04:10:26 435.950
DANDE 07 May 04:29:16 04:32:53 14° 277° (W) 04:36:43 436.750
MOZHAYETS 4 07 May 04:32:27 04:36:49 45° 262° (W) 04:41:12
Gurwin Techsat 1B 07 May 04:34:27 04:38:04 19° 298° (WNW) 04:41:39 435.225
AIST 2 07 May 04:37:40 04:41:50 89° 19° (NNE) 04:45:58 435.215
CUBESAT XI-V 07 May 04:53:45 04:57:52 34° 70° (ENE) 05:02:02 437.345
YUBILEINY 07 May 05:07:31 05:15:48 45° 74° (ENE) 05:24:02 435.215
HORYU 2 07 May 05:12:44 05:16:53 38° 98° (E) 05:21:00 437.375
SO-50 07 May 05:14:41 05:18:17 21° 111° (ESE) 05:21:54 436.795
RS-15 07 May 05:29:38 05:41:49 62° 49° (NE) 05:53:59 29.354- 29.394
ITAMSAT 1 07 May 05:31:42 05:34:10 14° 301° (WNW) 05:36:38 435.822/435.867
Cosmos 2504 07 May 05:35:34 05:40:21 17° 64° (ENE) 05:45:17 435.465 / 435.565
STARS 07 May 05:37:55 05:39:25 11° 270° (W) 05:40:56 437.465
AO-7 07 May 05:46:48 05:54:49 54° 296° (WNW) 06:02:50 29.400- 29.500
BRITE-PL 07 May 05:47:58 05:50:39 13° 87° (E) 05:53:17 437.365/2234.400
Cosmos 2491 07 May 05:53:05 06:01:13 44° 87° (E) 06:09:23 435.465 / 435.565
CUTE-I 07 May 05:55:35 05:58:05 13° 90° (E) 06:00:35 437.470
ISS 07 May 05:59:16 06:02:31 73° 143° (SE) 06:05:46 145.825
NOAA 15 07 May 06:20:12 06:25:03 35° 97° (E) 06:29:51 137.62
STRAND 1 07 May 06:30:47 06:35:18 33° 67° (ENE) 06:39:50 437.568
CUBESAT XI-V 07 May 06:31:35 06:35:18 24° 266° (W) 06:39:04 437.345
GOMX 1 07 May 06:34:16 06:37:42 17° 89° (E) 06:41:00 467.674
Cubesat XI-IV 07 May 06:39:43 06:44:35 35° 97° (E) 06:49:25 437.490
NOAA 18 07 May 06:47:29 06:52:49 52° 101° (E) 06:58:07 137.9125
HORYU 2 07 May 06:49:56 06:53:11 20° 295° (WNW) 06:56:25 437.375
SO-50 07 May 06:53:37 06:58:25 52° 307° (NW) 07:03:14 436.795
YUBILEINY 07 May 07:04:34 07:12:27 40° 274° (W) 07:20:20 435.215
PHONESAT 2.4 07 May 07:12:28 07:13:33 11° 148° (SSE) 07:14:39 2401.200-2431.200
PRISM 07 May 07:21:01 07:23:50 18° 65° (ENE) 07:26:39 437.425
BRITE-PL 07 May 07:24:03 07:29:48 84° 284° (WNW) 07:35:18 437.365/2234.400
LilacSat-2 07 May 07:26:02 07:29:49 71° 284° (WNW) 07:33:34 437.200
Cosmos 2504 07 May 07:26:59 07:34:45 87° 83° (E) 07:43:05 435.465 / 435.565
CUTE-I 07 May 07:33:22 07:38:42 76° 286° (WNW) 07:44:01 437.470
ISS 07 May 07:36:37 07:39:16 22° 341° (NNW) 07:41:54 145.825
DOVE 4 07 May 07:42:27 07:47:04 36° 96° (E) 07:51:25 437.250
AO-7 07 May 07:42:34 07:45:43 13° 317° (NW) 07:48:53 29.400- 29.500
RS-15 07 May 07:42:42 07:53:56 44° 252° (WSW) 08:05:06 29.354- 29.394
Cosmos 2491 07 May 07:49:47 07:58:02 42° 287° (WNW) 08:06:21 435.465 / 435.565
CINEMA 3 07 May 07:51:37 07:53:31 12° 88° (E) 07:55:22 145.822/145.860
NOAA 15 07 May 08:00:06 08:04:43 31° 294° (WNW) 08:09:19 137.62
CANX-2 07 May 08:00:32 08:03:17 17° 92° (E) 08:06:03 2200.000
STRAND 1 07 May 08:10:02 08:14:27 29° 264° (W) 08:18:54 437.568
GOMX 1 07 May 08:10:55 08:16:14 60° 287° (WNW) 08:21:14 467.674
M-CUBED/EXP-1 PRIME 07 May 08:12:11 08:15:57 65° 106° (ESE) 08:19:25 437.505
Cubesat XI-IV 07 May 08:19:56 08:24:33 31° 294° (WNW) 08:29:09 437.490
AUBIESAT-1 07 May 08:26:25 08:30:11 80° 110° (ESE) 08:33:39 437.475
NOAA 18 07 May 08:28:59 08:33:06 22° 298° (WNW) 08:37:12 137.9125
CUTE 1.7 + AOD 2 07 May 08:31:32 08:35:21 32° 97° (E) 08:39:09 437.475
SO-50 07 May 08:38:32 08:40:02 11° 328° (NNW) 08:41:32 436.795
HO-68 07 May 08:43:44 08:50:40 50° 100° (E) 08:57:34 435.675
COMPASS 1 07 May 08:44:10 08:47:32 23° 95° (E) 08:50:53 437.405
PHONESAT 2.4 07 May 08:46:54 08:49:53 41° 163° (SSE) 08:52:52 2401.200-2431.200
SEEDS 07 May 08:49:39 08:53:34 37° 98° (E) 08:57:28 437.485
PRISM 07 May 08:55:04 08:58:52 37° 262° (W) 09:02:42 437.425
BRITE-PL 07 May 09:04:47 09:07:19 13° 302° (WNW) 09:09:50 437.365/2234.400
AAUSAT CUBESAT 2 07 May 09:09:40 09:13:30 36° 97° (E) 09:17:21 437.432
ISS 07 May 09:14:44 09:16:36 14° 1° (N) 09:18:28 145.825
CUTE-I 07 May 09:16:36 09:17:50 11° 304° (WNW) 09:19:04 437.470
UNISAT 6 07 May 09:17:49 09:20:50 18° 65° (ENE) 09:23:49 437.425
